| time (UTC) | temp F | wind direction | speed MPH | gust MPH | rain 1hr in | rain 24hr in | rain mn in | humidity % | barometer mb |
| 20260508093040 | 46 | 20 | 0.0 | 2.0 | 0.00 | 0.11 | 0.00 | 90 | 1015.9 |
| 20260508091544 | 47 | 0 | 0.0 | 1.0 | 0.00 | 0.11 | 0.00 | 89 | 1015.8 |
| 20260508090058 | 47 | 20 | 1.0 | 3.0 | 0.00 | 0.11 | 0.00 | 88 | 1015.7 |
| 20260508084544 | 48 | 0 | 0.0 | 1.0 | 0.00 | 0.11 | 0.00 | 87 | 1015.6 |
| 20260508083055 | 49 | 0 | 0.0 | 2.0 | 0.00 | 0.11 | 0.00 | 86 | 1015.6 |
| 20260508081542 | 50 | 20 | 0.0 | 1.0 | 0.00 | 0.11 | 0.00 | 84 | 1015.4 |
| 20260508080037 | 50 | 0 | 0.0 | 5.0 | 0.00 | 0.11 | 0.00 | 82 | 1015.5 |
| 20260508074550 | 52 | 0 | 0.0 | 4.0 | 0.00 | 0.11 | 0.00 | 80 | 1015.3 |
| 20260508073044 | 53 | 272 | 0.0 | 3.0 | 0.00 | 0.11 | 0.00 | 77 | 1015.2 |
| 20260508071544 | 53 | 272 | 1.0 | 3.0 | 0.00 | 0.11 | 0.00 | 76 | 1015.2 |
| 20260508070043 | 54 | 272 | 1.0 | 4.0 | 0.00 | 0.11 | 0.00 | 75 | 1015.0 |
| 20260508064550 | 54 | 271 | 3.0 | 9.0 | 0.00 | 0.12 | 0.00 | 75 | 1015.0 |
| 20260508063047 | 54 | 279 | 2.0 | 7.0 | 0.00 | 0.12 | 0.00 | 75 | 1015.0 |
| 20260508061549 | 54 | 263 | 2.0 | 6.0 | 0.00 | 0.12 | 0.00 | 75 | 1014.9 |
| 20260508060047 | 55 | 275 | 1.0 | 6.0 | 0.00 | 0.12 | 0.00 | 75 | 1014.9 |
| 20260508054545 | 55 | 288 | 1.0 | 6.0 | 0.00 | 0.17 | 0.00 | 74 | 1015.0 |
| 20260508053040 | 55 | 286 | 1.0 | 4.0 | 0.00 | 0.17 | 0.00 | 73 | 1015.0 |
| 20260508051539 | 56 | 290 | 2.0 | 8.0 | 0.00 | 0.17 | 0.00 | 72 | 1015.0 |
| 20260508050046 | 56 | 327 | 4.0 | 8.0 | 0.00 | 0.17 | 0.00 | 71 | 1014.9 |
| 20260508044544 | 56 | 302 | 2.0 | 9.0 | 0.00 | 0.21 | 0.00 | 71 | 1014.7 |
| 20260508043049 | 56 | 322 | 1.0 | 4.0 | 0.00 | 0.21 | 0.00 | 71 | 1014.7 |
| 20260508041540 | 56 | 321 | 3.0 | 8.0 | 0.00 | 0.21 | 0.00 | 71 | 1014.7 |
| 20260508040041 | 56 | 0 | 2.0 | 4.0 | 0.00 | 0.21 | 0.00 | 71 | 1014.6 |
| 20260508034549 | 56 | 278 | 1.0 | 3.0 | 0.00 | 0.21 | 0.21 | 69 | 1014.7 |
| 20260508033044 | 57 | 248 | 2.0 | 9.0 | 0.00 | 0.21 | 0.21 | 69 | 1014.7 |
| 20260508031544 | 57 | 254 | 4.0 | 10.0 | 0.00 | 0.21 | 0.21 | 68 | 1014.6 |
| 20260508030045 | 57 | 274 | 5.0 | 9.0 | 0.00 | 0.21 | 0.21 | 68 | 1014.5 |
| 20260508024544 | 56 | 270 | 5.0 | 10.0 | 0.00 | 0.23 | 0.21 | 69 | 1014.4 |
| 20260508023049 | 56 | 246 | 3.0 | 8.0 | 0.00 | 0.23 | 0.21 | 71 | 1014.3 |
| 20260508021546 | 57 | 251 | 0.0 | 6.0 | 0.00 | 0.23 | 0.21 | 70 | 1014.1 |
| 20260508020044 | 57 | 333 | 3.0 | 13.0 | 0.00 | 0.23 | 0.21 | 70 | 1014.0 |
| 20260508014551 | 57 | 319 | 4.0 | 10.0 | 0.00 | 0.27 | 0.21 | 70 | 1013.8 |
| 20260508013045 | 57 | 279 | 3.0 | 10.0 | 0.00 | 0.27 | 0.21 | 68 | 1013.5 |
| 20260508011546 | 57 | 316 | 3.0 | 9.0 | 0.00 | 0.27 | 0.21 | 68 | 1013.3 |
| 20260508010043 | 57 | 277 | 4.0 | 8.0 | 0.00 | 0.27 | 0.21 | 68 | 1013.1 |
| 20260508004538 | 58 | 331 | 3.0 | 8.0 | 0.00 | 0.38 | 0.21 | 66 | 1012.9 |
| 20260508003053 | 58 | 351 | 4.0 | 8.0 | 0.00 | 0.38 | 0.21 | 65 | 1012.7 |
| 20260508001545 | 59 | 310 | 4.0 | 10.0 | 0.00 | 0.38 | 0.21 | 64 | 1012.3 |
| 20260508000045 | 60 | 271 | 6.0 | 16.0 | 0.00 | 0.38 | 0.21 | 62 | 1012.2 |
| 20260507234540 | 61 | 294 | 3.0 | 17.0 | 0.00 | 0.44 | 0.21 | 61 | 1012.2 |
| 20260507233040 | 61 | 284 | 7.0 | 17.0 | 0.00 | 0.44 | 0.21 | 63 | 1012.1 |
| 20260507231541 | 61 | 317 | 9.0 | 21.0 | 0.00 | 0.44 | 0.21 | 64 | 1011.9 |
| 20260507230044 | 61 | 280 | 8.0 | 24.0 | 0.00 | 0.44 | 0.21 | 65 | 1011.7 |
| 20260507224559 | 62 | 275 | 11.0 | 23.0 | 0.00 | 0.44 | 0.21 | 64 | 1011.3 |
| 20260507223052 | 63 | 329 | 8.0 | 18.0 | 0.00 | 0.44 | 0.21 | 64 | 1010.9 |
| 20260507221537 | 65 | 269 | 7.0 | 18.0 | 0.00 | 0.44 | 0.21 | 64 | 1010.9 |
| 20260507220045 | 67 | 289 | 7.0 | 21.0 | 0.00 | 0.44 | 0.21 | 62 | 1010.6 |
| 20260507214542 | 68 | 315 | 7.0 | 19.0 | 0.00 | 0.44 | 0.21 | 61 | 1009.9 |
| 20260507213041 | 69 | 273 | 9.0 | 20.0 | 0.00 | 0.44 | 0.21 | 61 | 1009.6 |
| 20260507211549 | 69 | 317 | 6.0 | 18.0 | 0.00 | 0.44 | 0.21 | 62 | 1009.3 |
| 20260507210040 | 70 | 317 | 9.0 | 19.0 | 0.00 | 0.44 | 0.21 | 62 | 1009.0 |
| 20260507204547 | 71 | 300 | 9.0 | 21.0 | 0.00 | 0.44 | 0.21 | 61 | 1009.1 |
| 20260507203044 | 71 | 314 | 6.0 | 17.0 | 0.00 | 0.44 | 0.21 | 62 | 1009.1 |
| 20260507201540 | 72 | 303 | 7.0 | 23.0 | 0.00 | 0.44 | 0.21 | 61 | 1008.9 |
| 20260507200042 | 73 | 311 | 7.0 | 17.0 | 0.00 | 0.44 | 0.21 | 61 | 1009.0 |
| 20260507194541 | 74 | 290 | 6.0 | 15.0 | 0.00 | 0.44 | 0.21 | 62 | 1008.8 |
| 20260507193041 | 74 | 263 | 4.0 | 13.0 | 0.00 | 0.44 | 0.21 | 61 | 1008.7 |
| 20260507191548 | 75 | 294 | 8.0 | 14.0 | 0.00 | 0.44 | 0.21 | 60 | 1008.9 |
| 20260507190041 | 75 | 260 | 4.0 | 14.0 | 0.00 | 0.44 | 0.21 | 62 | 1008.8 |
| 20260507184534 | 75 | 272 | 5.0 | 11.0 | 0.00 | 0.44 | 0.21 | 63 | 1009.0 |
| 20260507183044 | 75 | 288 | 2.0 | 9.0 | 0.00 | 0.44 | 0.21 | 67 | 1009.0 |
| 20260507181544 | 73 | 286 | 3.0 | 7.0 | 0.00 | 0.44 | 0.21 | 74 | 1008.9 |
| 20260507180046 | 73 | 265 | 2.0 | 6.0 | 0.00 | 0.44 | 0.21 | 73 | 1009.0 |
| 20260507174539 | 74 | 261 | 2.0 | 5.0 | 0.00 | 0.44 | 0.21 | 72 | 1008.9 |
| 20260507173036 | 76 | 189 | 2.0 | 12.0 | 0.00 | 0.44 | 0.21 | 67 | 1009.0 |
| 20260507171545 | 76 | 154 | 3.0 | 9.0 | 0.00 | 0.44 | 0.21 | 69 | 1009.0 |
| 20260507170045 | 74 | 269 | 2.0 | 5.0 | 0.00 | 0.44 | 0.21 | 74 | 1009.1 |
| 20260507164540 | 73 | 201 | 2.0 | 9.0 | 0.00 | 0.51 | 0.21 | 75 | 1009.4 |
| 20260507163040 | 73 | 186 | 3.0 | 7.0 | 0.00 | 0.51 | 0.21 | 76 | 1009.8 |
| 20260507161536 | 72 | 176 | 3.0 | 9.0 | 0.00 | 0.51 | 0.21 | 80 | 1009.7 |
| 20260507160047 | 70 | 166 | 4.0 | 9.0 | 0.00 | 0.51 | 0.21 | 83 | 1010.1 |
| 20260507154541 | 70 | 193 | 4.0 | 11.0 | 0.00 | 0.52 | 0.21 | 84 | 1010.1 |
| 20260507153040 | 69 | 199 | 2.0 | 7.0 | 0.00 | 0.52 | 0.21 | 86 | 1009.9 |
| 20260507151546 | 67 | 152 | 3.0 | 7.0 | 0.00 | 0.52 | 0.21 | 90 | 1009.4 |
| 20260507150040 | 66 | 192 | 2.0 | 6.0 | 0.00 | 0.52 | 0.21 | 96 | 1009.9 |
| 20260507144544 | 65 | 200 | 2.0 | 6.0 | 0.00 | 0.52 | 0.21 | 98 | 1010.3 |
| 20260507143044 | 64 | 188 | 1.0 | 5.0 | 0.00 | 0.52 | 0.21 | 98 | 1010.3 |
| 20260507141540 | 63 | 0 | 0.0 | 3.0 | 0.00 | 0.52 | 0.21 | 98 | 1010.7 |
| 20260507140056 | 63 | 0 | 0.0 | 2.0 | 0.00 | 0.52 | 0.21 | 98 | 1010.7 |
| 20260507134548 | 62 | 205 | 0.0 | 4.0 | 0.00 | 0.52 | 0.21 | 98 | 1010.7 |
| 20260507133046 | 62 | 0 | 0.0 | 0.0 | 0.00 | 0.52 | 0.21 | 98 | 1010.2 |
| 20260507131547 | 62 | 0 | 0.0 | 4.0 | 0.00 | 0.52 | 0.21 | 98 | 1010.5 |
| 20260507130043 | 62 | 0 | 1.0 | 4.0 | 0.01 | 0.52 | 0.21 | 98 | 1010.3 |
| 20260507124540 | 62 | 169 | 0.0 | 2.0 | 0.03 | 0.52 | 0.21 | 98 | 1010.1 |
| 20260507123042 | 61 | 0 | 0.0 | 1.0 | 0.06 | 0.52 | 0.21 | 98 | 1010.0 |
| 20260507121545 | 61 | 146 | 1.0 | 4.0 | 0.09 | 0.52 | 0.21 | 98 | 1010.4 |
| 20260507120044 | 61 | 146 | 1.0 | 5.0 | 0.09 | 0.51 | 0.20 | 98 | 1011.1 |
| 20260507114544 | 61 | 211 | 1.0 | 2.0 | 0.08 | 0.49 | 0.18 | 98 | 1011.3 |
| 20260507113041 | 61 | 0 | 1.0 | 3.0 | 0.05 | 0.46 | 0.15 | 98 | 1012.0 |
| 20260507111544 | 61 | 205 | 0.0 | 3.0 | 0.02 | 0.43 | 0.12 | 98 | 1011.6 |
| 20260507110036 | 61 | 0 | 0.0 | 2.0 | 0.01 | 0.42 | 0.11 | 97 | 1010.8 |
| 20260507104544 | 61 | 207 | 1.0 | 4.0 | 0.00 | 0.41 | 0.10 | 97 | 1011.0 |
| 20260507103043 | 61 | 209 | 0.0 | 0.0 | 0.00 | 0.41 | 0.10 | 98 | 1011.3 |
| 20260507101558 | 61 | 0 | 0.0 | 0.0 | 0.00 | 0.41 | 0.10 | 97 | 1010.7 |
| 20260507100039 | 61 | 0 | 0.0 | 0.0 | 0.00 | 0.41 | 0.10 | 97 | 1010.2 |
| 20260507094555 | 61 | 0 | 0.0 | 2.0 | 0.00 | 0.41 | 0.10 | 97 | 1010.7 |